Weather Roundup
Issued by NWS

Home | Current Version | Previous Version | Text Only | Print | Product List | Glossary On
Versions: 1 2 3 4 5 6 7 8 9 10 11 12 13 14 15 16 17 18 19 20 21 22 23 24 25 26 27 28 29 30 31 32 33 34 35 36 37 38 39 40 41 42 43 44 45 46 47 48 49 50
000
NZUS93 KARX 241110
HRRWXR

CURRENT HOURLY OBSERVATIONS ACROSS
MUCH OF THE UPPER MISSISSIPPI VALLEY
NATIONAL WEATHER SERVICE LA CROSSE WI
600 AM CDT THU APR 24 2014


...SOUTHEAST MINNESOTA...


CITY           SKY/WX    TMP DP  RH WIND       PRES   REMARKS
ROCHESTER      RAIN      40  36  86 SE21G28   29.80F FOG     WCI  30
ROCHESTER/MAYO CLOUDY    39  37  94 E15G21    29.81F WCI  30
WINONA         RAIN      37  36  93 SE12      29.88F WCI  30
AUSTIN         MIX PCPN  41  39  93 SE21G26   29.78S
ALBERT LEA     LGT RAIN  41  41 100 SE17G26   29.76S
DODGE CENTER   RAIN      43  41  93 SE20      29.79F
PRESTON        RAIN      39  37  91 SE13G18   29.82F WCI  32
OWATONNA       CLOUDY    43  39  87 SE21G26   29.76F
FARIBAULT      RAIN      45  37  76 E13G21    29.78F
$$

...ELSEWHERE IN MINNESOTA...


CITY           SKY/WX    TMP DP  RH WIND       PRES   REMARKS
MINNEAPOLIS    LGT RAIN  41  40  96 E17       29.81F FOG
INTNL FALLS    CLOUDY    37  35  92 E10       29.91F WCI  30
DULUTH         DRIZZLE   36  34  92 E18       29.93F FOG     WCI  26
RED WING       HVY RAIN  41  37  87 SE17G23   29.82F
REDWOOD FALLS  RAIN      43  41  93 SE13G22   29.71F FOG
MANKATO        CLOUDY    43  39  87 SE14G22   29.76S
WORTHINGTON    CLOUDY    45  37  76 SE14      29.68F
FAIRMONT       CLOUDY    45  37  76 SE16      29.72S
$$

...SOUTHWEST WISCONSIN...


CITY           SKY/WX    TMP DP  RH WIND       PRES   REMARKS
LA CROSSE      RAIN      40  38  93 S9        29.90S WCI  34
PRAIRIE DU CHI DRIZZLE   41  35  78 E12G18    29.86F
BOSCOBEL       LGT RAIN  40  35  83 VRB5      29.91F
LONE ROCK      CLOUDY    38  34  85 E13       29.94F WCI  30
PLATTEVILLE    CLOUDY    40  33  76 E21G26    29.89F WCI  30
FORT MC COY    LGT RAIN  37  36  94 E12G17    29.92F WCI  30
CAMP DOUGLAS   LGT RAIN  36  36 100 E15       29.95F WCI  27
VIROQUA        CLOUDY    36  36  99 E21G26    29.87F WCI  25
WIS DELLS      CLOUDY    35  32  90 E10       29.96F WCI  27
$$

...ELSEWHERE IN WISCONSIN...


CITY           SKY/WX    TMP DP  RH WIND       PRES   REMARKS
MILWAUKEE      LGT RAIN  37  31  78 NE7       30.06F WCI  32
MADISON        LGT RAIN  38  33  82 E14       29.98F WCI  30
GREEN BAY      CLOUDY    41  25  53 SE5       30.06F
EAU CLAIRE     LGT RAIN  38  36  92 E12G21    29.92S WCI  30
BLACK RVR FLS  RAIN      38  38 100 E6        29.93F WCI  33
MEDFORD        CLOUDY    37  18  46 E13G20    29.97S WCI  28
WAUSAU         CLOUDY    39  18  42 E8        29.99F WCI  33
WIS RAPIDS     LGT RAIN  34  32  92 E7        30.01F WCI  28
MARSHFIELD     CLOUDY    36  31  82 SE13      29.98F WCI  27
RICE LAKE      LGT RAIN  37  35  94 E12       29.94S WCI  29
$$

...NORTHEAST IOWA...


CITY           SKY/WX    TMP DP  RH WIND       PRES   REMARKS
WATERLOO       LGT RAIN  44  38  79 SE21G29   29.75F
DUBUQUE        CLOUDY    42  32  67 SE21      29.85F
DECORAH        CLOUDY    41  37  87 E15G24    29.81F
MASON CITY     LGT RAIN  42  40  92 E14       29.76F
CHARLES CITY   LGT RAIN  43  37  81 E18G26    29.77R
OELWEIN        CLOUDY   N/A N/A N/A SE20G28   29.78F
$$

...ELSEWHERE IN IOWA...


CITY           SKY/WX    TMP DP  RH WIND       PRES   REMARKS
DES MOINES     CLOUDY    51  42  71 SE15G25   29.66F
IOWA CITY      CLOUDY    48  38  68 SE14G21   29.82F
FORT DODGE     CLOUDY    45  39  81 E10       29.67F
MARSHALLTOWN   LGT RAIN  46  39  76 SE25G32   29.68F
CEDAR RAPIDS   CLOUDY    46  38  73 SE15G24   29.78F
$$

...NORTHERN ILLINOIS...


CITY           SKY/WX    TMP DP  RH WIND       PRES   REMARKS
CHICAGO-OHARE  CLOUDY    41  32  70 E7        30.04F
DUPAGE         CLOUDY    42  33  70 E9        30.01F
CHICAGO-MIDWAY CLOUDY    43  35  73 E7        30.04F
MOLINE         CLOUDY    46  37  71 SE18G24   29.87F
ROCKFORD       CLOUDY    41  31  67 E15       29.98F
STERLING       CLOUDY    45  36  70 E20       29.91F
PEORIA         MOCLDY    51  36  56 E13       29.93F
$$

NOTE: "FAIR" INDICATES FEW OR NO CLOUDS BELOW 12,000 FEET WITH NO
SIGNIFICANT WEATHER AND/OR OBSTRUCTIONS TO VISIBILITY. WIND
SPEEDS ARE IN MILES-PER-HOUR.



USA.gov is the U.S. government's official web portal to all federal, state and local government web resources and services.